KBFL

Meadows Field

Airport
ICAO code
KBFL
Summary
ICAO Region
NAM
ICAO Territory
Location

Bakersfield, California

Serving
Bakersfield
Coordinates
35° 26' 16" N , 119° 3' 9" W
KCC
Airport LOS
Parallel Runway Operation
Metar
KBFL 200654Z AUTO 00000KT 10SM CLR 31/14 A2989 RMK AO2 SLP112 T03110139

International airport located 6 km northwest of the central business district of Bakersfield, California. It is the primary airport serving the Greater Bakersfield metropolitan area and one of two international airports in the San Joaquin Valley.

Climatology

Hot Desert Climate (Köppen climate classification BWh)

Airport map

Aerial View

SKYbrary Partners:

Safety knowledge contributed by: